This is the latest recevied weather packets stored in our database for station/object W4MLN-3. If no packets are shown the sender has not sent any weather packets the latest 10 day(s).
| Time | Temp. | Humidity | Pressure | Rain* | Wind** | Luminosity | Snow |
|---|---|---|---|---|---|---|---|
| 1777399525 | 21.11° C | 66% | 1017.7 hPa | 0 mm | - | - | - |
| 1777399204 | 20.56° C | 68% | 1017.7 hPa | 0 mm | - | - | - |
| 1777398903 | 20° C | 71% | 1017.8 hPa | 0 mm | - | - | - |
| 1777398604 | 20° C | 69% | 1017.9 hPa | 0 mm | - | - | - |
| 1777398324 | 20° C | 69% | 1017.8 hPa | 0 mm | - | - | - |
| 1777398004 | 20° C | 68% | 1017.8 hPa | 0 mm | - | - | - |
| 1777397703 | 20° C | 70% | 1017.9 hPa | 0 mm | - | - | - |
| 1777397403 | 19.44° C | 71% | 1018.2 hPa | 0 mm | - | - | - |
| 1777397103 | 18.89° C | 72% | 1018.2 hPa | 0 mm | - | - | - |
| 1777396803 | 18.89° C | 71% | 1018.1 hPa | 0 mm | - | - | - |
| 1777396524 | 18.89° C | 71% | 1018.2 hPa | 0 mm | - | - | - |
| 1777396203 | 18.33° C | 74% | 1018.2 hPa | 0 mm | - | - | - |
| 1777395903 | 17.78° C | 75% | 1018.4 hPa | 0 mm | - | - | - |
| 1777395603 | 17.78° C | 76% | 1018.4 hPa | 0 mm | - | - | - |
| 1777395303 | 17.22° C | 76% | 1018.5 hPa | 0 mm | - | - | - |
| 1777395025 | 16.67° C | 77% | 1018.6 hPa | 0 mm | - | - | - |
| 1777394703 | 16.67° C | 78% | 1018.6 hPa | 0 mm | - | - | - |
| 1777394404 | 16.11° C | 81% | 1018.6 hPa | 0 mm | - | - | - |
| 1777394104 | 15.56° C | 80% | 1018.7 hPa | 0 mm | - | - | - |
| 1777393803 | 15.56° C | 83% | 1019 hPa | 0 mm | - | - | - |
| 1777393503 | 15° C | 83% | 1019.1 hPa | 0 mm | - | - | - |
| 1777393204 | 14.44° C | 84% | 1019.1 hPa | 0 mm | - | - | - |
| 1777392903 | 14.44° C | 85% | 1019 hPa | 0 mm | - | - | - |
| 1777392603 | 13.89° C | 87% | 1019.1 hPa | 0 mm | - | - | - |
| 1777392303 | 13.33° C | 88% | 1019.3 hPa | 0 mm | - | - | - |
* Rain latest hour (hover to see other rain measurements)
** Current wind speed in m/s (hover to see current wind gust speed)